TimeAKST,TemperatureF,Dew PointF,Humidity,Sea Level PressureIn,VisibilityMPH,Wind Direction,Wind SpeedMPH,Gust SpeedMPH,PrecipitationIn,Events,Conditions,WindDirDegrees,DateUTC
12:15 AM,1.4,-2.2,85,30.25,1.0,WSW,23.0,-,0.00,Snow,Light Snow,240,2012-11-15 09:15:00
12:39 AM,1.4,-2.2,85,30.24,0.8,SW,23.0,-,0.00,Snow,Light Snow,230,2012-11-15 09:39:00
12:53 AM,-0.0,-2.9,88,30.24,0.5,WSW,25.3,-,0.00,Fog-Snow,Light Snow,240,2012-11-15 09:53:00
1:12 AM,-0.4,-2.2,92,30.24,1.0,SW,23.0,-,0.00,,Overcast,230,2012-11-15 10:12:00
1:53 AM,-0.0,-2.9,88,30.24,1.0,SW,23.0,-,0.00,Snow,Light Snow,230,2012-11-15 10:53:00
2:06 AM,-0.4,-2.2,92,30.23,0.8,SW,21.9,-,0.00,Snow,Light Snow,230,2012-11-15 11:06:00
2:30 AM,1.4,-2.2,85,30.23,1.0,WSW,24.2,-,0.00,Snow,Light Snow,240,2012-11-15 11:30:00
2:37 AM,1.4,-2.2,85,30.22,0.8,WSW,23.0,-,0.00,Snow,Light Snow,240,2012-11-15 11:37:00
3:53 AM,1.9,-0.9,88,30.22,0.5,WSW,24.2,-,0.00,Fog-Snow,Light Snow,240,2012-11-15 12:53:00
4:53 AM,1.9,-0.9,88,30.22,0.8,WSW,23.0,-,0.00,Snow,Light Snow,250,2012-11-15 13:53:00
5:01 AM,1.4,-0.4,92,30.21,0.8,WSW,23.0,-,0.00,Snow,Light Snow,250,2012-11-15 14:01:00
5:09 AM,1.4,-0.4,92,30.20,1.0,WSW,21.9,-,0.00,Snow,Light Snow,250,2012-11-15 14:09:00
5:28 AM,1.4,-0.4,92,30.20,1.2,WSW,23.0,-,0.00,Snow,Blowing Snow,250,2012-11-15 14:28:00
5:49 AM,3.2,-0.4,85,30.20,0.8,WSW,25.3,-,0.00,Snow,Light Snow,250,2012-11-15 14:49:00
5:53 AM,3.0,-0.0,87,30.20,1.0,WSW,24.2,-,0.00,Snow,Light Snow,250,2012-11-15 14:53:00
6:53 AM,3.9,1.0,88,30.20,1.8,WSW,19.6,-,0.00,Snow,Light Snow,250,2012-11-15 15:53:00
7:07 AM,3.2,1.4,92,30.20,2.0,WSW,21.9,-,0.00,Snow,Light Snow,250,2012-11-15 16:07:00
7:19 AM,3.2,1.4,92,30.19,2.0,WSW,20.7,-,0.00,Snow,Light Snow,250,2012-11-15 16:19:00
7:35 AM,5.0,1.4,85,30.19,3.0,WSW,19.6,-,0.00,Snow,Blowing Snow,250,2012-11-15 16:35:00
7:53 AM,5.0,1.9,87,30.20,3.0,WSW,19.6,-,0.00,Snow,Blowing Snow,240,2012-11-15 16:53:00
8:33 AM,5.0,3.2,92,30.20,2.5,WSW,21.9,-,0.00,Snow,Blowing Snow,240,2012-11-15 17:33:00
8:40 AM,6.8,3.2,85,30.20,3.0,WSW,19.6,-,0.00,Snow,Blowing Snow,240,2012-11-15 17:40:00
8:51 AM,6.8,3.2,85,30.20,2.0,WSW,23.0,-,0.00,,Overcast,240,2012-11-15 17:51:00
8:53 AM,6.1,3.0,87,30.21,2.0,WSW,21.9,-,0.00,Snow,Light Snow,240,2012-11-15 17:53:00
9:42 AM,6.8,3.2,85,30.20,1.5,WSW,21.9,-,0.00,Snow,Light Snow,240,2012-11-15 18:42:00
9:53 AM,6.1,3.9,91,30.21,1.5,WSW,21.9,-,0.00,Snow,Light Snow,240,2012-11-15 18:53:00
10:04 AM,6.8,3.2,85,30.20,2.0,WSW,19.6,-,0.00,Snow,Light Snow,250,2012-11-15 19:04:00
10:26 AM,6.8,3.2,85,30.20,1.8,WSW,20.7,-,0.00,Snow,Light Snow,250,2012-11-15 19:26:00
10:34 AM,6.8,3.2,85,30.21,2.0,WSW,20.7,-,0.00,Snow,Light Snow,250,2012-11-15 19:34:00
10:50 AM,6.8,3.2,85,30.21,2.5,WSW,20.7,-,0.00,Snow,Light Snow,250,2012-11-15 19:50:00
10:53 AM,7.0,3.9,87,30.22,2.5,WSW,19.6,-,0.00,Snow,Light Snow,250,2012-11-15 19:53:00
11:04 AM,6.8,3.2,85,30.21,1.2,WSW,18.4,-,0.00,Snow,Light Snow,250,2012-11-15 20:04:00
11:16 AM,6.8,3.2,85,30.21,0.5,WSW,20.7,-,0.00,Fog-Snow,Light Snow,250,2012-11-15 20:16:00
11:53 AM,6.1,3.9,91,30.22,0.5,WSW,21.9,-,0.00,Fog-Snow,Light Snow,250,2012-11-15 20:53:00
12:16 PM,5.0,3.2,92,30.22,1.0,West,19.6,-,0.00,Snow,Light Snow,260,2012-11-15 21:16:00
12:43 PM,5.0,3.2,92,30.23,2.5,West,17.3,-,0.00,Snow,Light Snow,260,2012-11-15 21:43:00
12:53 PM,3.9,1.9,91,30.23,2.0,West,15.0,-,0.00,Snow,Light Snow,260,2012-11-15 21:53:00
1:30 PM,3.2,1.4,92,30.23,1.5,West,19.6,-,0.00,Snow,Light Snow,260,2012-11-15 22:30:00
1:53 PM,3.9,1.0,88,30.23,1.8,WSW,17.3,-,0.00,Snow,Light Snow,250,2012-11-15 22:53:00
2:01 PM,3.2,1.4,92,30.23,2.5,West,18.4,-,0.00,Snow,Blowing Snow,260,2012-11-15 23:01:00
2:10 PM,3.2,1.4,92,30.23,4.0,WSW,17.3,-,0.00,Snow,Blowing Snow,250,2012-11-15 23:10:00
2:49 PM,3.2,-0.4,85,30.23,1.8,WSW,16.1,-,0.00,Snow,Blowing Snow,250,2012-11-15 23:49:00
2:53 PM,3.0,-0.0,87,30.24,2.0,WSW,16.1,-,0.00,Snow,Blowing Snow,250,2012-11-15 23:53:00
3:03 PM,3.2,1.4,92,30.23,7.0,WSW,15.0,-,N/A,,Overcast,250,2012-11-16 00:03:00
3:53 PM,3.9,1.0,88,30.24,10.0,West,11.5,-,N/A,,Overcast,260,2012-11-16 00:53:00
4:53 PM,5.0,1.9,87,30.25,10.0,WSW,11.5,-,0.00,,Overcast,250,2012-11-16 01:53:00
5:53 PM,6.1,1.9,83,30.26,10.0,West,9.2,-,0.00,,Overcast,280,2012-11-16 02:53:00
6:26 PM,6.8,3.2,85,30.26,8.0,WNW,9.2,-,0.00,Snow,Light Snow,290,2012-11-16 03:26:00
6:53 PM,6.1,3.0,87,30.27,10.0,West,9.2,-,0.00,,Overcast,280,2012-11-16 03:53:00
7:14 PM,6.8,3.2,85,30.28,10.0,West,8.1,-,0.00,Snow,Light Snow,260,2012-11-16 04:14:00
7:53 PM,6.1,3.0,87,30.30,10.0,West,9.2,-,0.00,,Overcast,260,2012-11-16 04:53:00
8:53 PM,6.1,3.0,87,30.32,3.0,West,9.2,-,0.00,Snow,Light Snow,270,2012-11-16 05:53:00
9:53 PM,6.1,3.0,87,30.33,7.0,WNW,10.4,-,0.00,,Overcast,290,2012-11-16 06:53:00
10:17 PM,6.8,3.2,85,30.33,10.0,WNW,11.5,-,N/A,,Overcast,290,2012-11-16 07:17:00
10:53 PM,6.1,3.0,87,30.35,7.0,West,12.7,-,0.00,Snow,Light Snow,280,2012-11-16 07:53:00
11:53 PM,7.0,3.9,87,30.36,5.0,West,13.8,-,0.00,Snow,Light Snow,270,2012-11-16 08:53:00